Flag for India Weather past 2 weeks in Ganganagar, Rajasthan, India

Now
48 °F

Fog.


Feels Like: 48 °F
Forecast: 44 / 64 °F
Wind: No wind

Location: Lahore Airport

Current Time: Jan 27, 2015 at 12:56:01 AM

Latest Report: Jan 27, 2015 at 12:25 AM


Visibility: 1 mi

Pressure: 30.15 "Hg

Humidity: 82%

Dew point: 43 °F

Location of GanganagarLocation

Historic Weather in Ganganagar — Graph

°F

Ganganagar temperature yesterday

Maximum temperature yesterday: 57 °F (at 3:30 PM)
Minimum temperature yesterday: 46 °F (at 4:25 AM)
Average temperature yesterday: 52 °F

Past Weeks' High & Low Weather Summary

 TemperatureHumidityPressure
High70 °F (Jan 16, 3:00 PM)100% (Jan 11, 10:55 PM)30.24 "Hg (Jan 11, 10:55 PM)
Low41 °F (Jan 12, 6:55 AM)31% (Jan 17, 3:30 PM)29.92 "Hg (Jan 14, 3:55 AM)
Average53 °F77%30.11 "Hg
* Reported Jan 11 10:55 PM — Jan 26 11:25 PM, Ganganagar, Weather by CustomWeather, © 2014

Note: Actual official high and low records may vary slightly from our data, if they occured in-between our weather recording intervals... More about our weather records

Advertising

Ganganagar weather history for previous 24 hours

 ConditionsComfort  
Time TempWeatherWind HumidityBarometerVisibility
11:25 PM
Jan 26
48 °FFog.3 mph87%30.15 "Hg1 mi
10:55 PM50 °FFog.5 mph82%30.15 "Hg1 mi
10:25 PM50 °FFog.3 mph82%30.15 "Hg2 mi
9:55 PM50 °FClear.3 mph82%30.15 "Hg2 mi
9:25 PM52 °FClear.No wind72%30.15 "Hg2 mi
8:55 PM52 °FClear.No wind77%30.15 "Hg2 mi
8:30 PM52 °FClear.No wind77%30.12 "Hg2 mi
8:00 PM54 °FClear.No wind72%30.12 "Hg2 mi
7:25 PM54 °FClear.No wind72%30.12 "Hg2 mi
7:00 PM55 °FClear.No wind67%30.12 "Hg2 mi
6:30 PM55 °FPassing clouds.3 mph67%30.09 "Hg2 mi
6:00 PM55 °FScattered clouds.6 mph67%30.12 "Hg2 mi
5:30 PM57 °FScattered clouds.5 mph63%30.12 "Hg2 mi
5:00 PM57 °FScattered clouds.6 mph63%30.12 "Hg2 mi
4:30 PM57 °FScattered clouds.6 mph63%30.12 "Hg2 mi
4:00 PM57 °FScattered clouds.7 mph63%30.12 "Hg2 mi
3:30 PM57 °FScattered clouds.5 mph63%30.12 "Hg2 mi
3:00 PM55 °FScattered clouds.6 mph67%30.15 "Hg1 mi
2:30 PM55 °FBroken clouds.6 mph67%30.15 "Hg1 mi
1:55 PM55 °FBroken clouds.7 mph72%30.18 "Hg1 mi
1:25 PM55 °FBroken clouds.7 mph72%30.21 "Hg1 mi
12:55 PM55 °FBroken clouds.7 mph72%30.21 "Hg1 mi
12:25 PM55 °FBroken clouds.6 mph72%30.21 "Hg1 mi
11:55 AM54 °FScattered clouds.6 mph72%30.24 "Hg1 mi
11:25 AM54 °FScattered clouds.3 mph72%30.24 "Hg1 mi
10:55 AM52 °FScattered clouds.No wind77%30.24 "Hg1 mi
10:25 AM52 °FScattered clouds.No wind77%30.24 "Hg1 mi
9:55 AM50 °FFog.No wind82%30.21 "Hg1 mi
9:25 AM50 °FFog.No wind82%30.21 "Hg1 mi
8:55 AM48 °FFog.No wind82%30.21 "Hg1 mi
8:25 AM48 °FFog.No wind82%30.18 "Hg1 mi
5:25 AM46 °FFog.5 mph82%30.12 "Hg1 mi
4:55 AM46 °FFog.7 mph87%30.15 "Hg1 mi
4:25 AM46 °FFog.5 mph87%30.15 "Hg1 mi
3:55 AM48 °FFog.6 mph82%30.15 "Hg1 mi
3:25 AM48 °FFog.5 mph82%30.15 "Hg1 mi
2:55 AM48 °FFog.3 mph87%30.15 "Hg1 mi
1:55 AM48 °FFog.6 mph87%30.15 "Hg1 mi
1:25 AM48 °FFog.6 mph87%30.15 "Hg1 mi
12:55 AM48 °FFog.7 mph87%30.15 "Hg1 mi
12:25 AM48 °FFog.7 mph87%30.15 "Hg1 mi
Weather by CustomWeather, © 2014

See weather overviewHow to use our weather pages